NORTHEAST SUFFOLK  -  Rip Current Statement Rip Current Statement        NORTHERN NASSAU  -  Rip Current Statement Rip Current Statement        NORTHERN QUEENS  -  Rip Current Statement Rip Current Statement     Air Quality Alert Air Quality Alert        NORTHWEST SUFFOLK  -  Rip Current Statement Rip Current Statement        SOUTHEAST SUFFOLK  -  Rip Current Statement Rip Current Statement        SOUTHERN NASSAU  -  Rip Current Statement Rip Current Statement        SOUTHERN QUEENS  -  Rip Current Statement Rip Current Statement     Air Quality Alert Air Quality Alert        SOUTHWEST SUFFOLK  -  Rip Current Statement Rip Current Statement      

Active alerts

Northern Queens
  Details for Northern Queens Rip Current Statement  +1 additional alert
Southern Queens
  Details for Southern Queens Rip Current Statement  +1 additional alert
Northern Nassau
  Details for Northern Nassau Rip Current Statement
Southern Nassau
  Details for Southern Nassau Rip Current Statement
Northwest Suffolk
  Details for Northwest Suffolk Rip Current Statement
Southwest Suffolk
  Details for Southwest Suffolk Rip Current Statement
Northeast Suffolk
  Details for Northeast Suffolk Rip Current Statement
Southeast Suffolk
  Details for Southeast Suffolk Rip Current Statement


WXM80 ListenWXM80 Stop

You find our weather info also at:

UK Metoffice

WeatherCloud

Weather Underground

Northeastern Weather Network

AWEKAS

Citizen Weather Observer Program (CWOP)

HAMweather, WeatherForYou, PWS Weather


Weather Underground History page Text

Daily Summary for February 20, 2017 Units:  Both    English   Metric
« Previous Day
Next Day »
Daily Weekly Monthly Yearly Custom
  High: Low: Average:
Temperature: 54.0 °F /  12.2 °C 35.9 °F /  2.2 °C 43.8 °F /  6.6 °C
Dew Point: 37.8 °F /  3.2 °C 24.3 °F /  -4.3 °C 31.2 °F /  -0.4 °C
Humidity: 85 % 40 % 62 %
Wind Speed: 9.8 mph /  15.8 km/h - 3.2 mph /  5.1 km/h
Wind Gust: 16.1 mph /  25.9 km/h - -
Wind:- - SSW
Pressure: 30.33 in /  1027 hPa 29.94 in /  1013.8 hPa -
Precipitation: 0.00 in /  0 mm    
Historical Graphs
 
 
Tabular Data for February 20, 2017
Time Temperature Dew Point Pressure Wind Wind Speed Wind Gust Humidity Rainfall Rate (Hourly)
00:00 45.2 °F /  7.3 °C 34.1 °F /  1.2 °C 29.94 in /  1013.8 hPa Calm   2.3 mph /  3.7 km/h 65 % 0.00 in /  0 mm
00:05 45.0 °F /  7.2 °C 33.9 °F /  1.1 °C 29.94 in /  1013.8 hPa Calm     65 % 0.00 in /  0 mm
00:10 44.7 °F /  7.1 °C 34.0 °F /  1.1 °C 29.94 in /  1013.8 hPa WNW 0.3 mph /  0.5 km/h 2.0 mph /  3.2 km/h 66 % 0.00 in /  0 mm
00:15 44.3 °F /  6.8 °C 33.7 °F /  0.9 °C 29.95 in /  1014.1 hPa Calm   1.2 mph /  1.9 km/h 66 % 0.00 in /  0 mm
00:20 44.0 °F /  6.7 °C 33.4 °F /  0.8 °C 29.95 in /  1014.1 hPa Calm   1.2 mph /  1.9 km/h 66 % 0.00 in /  0 mm
00:25 43.7 °F /  6.5 °C 33.5 °F /  0.8 °C 29.95 in /  1014.1 hPa Calm     67 % 0.00 in /  0 mm
00:31 43.4 °F /  6.3 °C 33.5 °F /  0.8 °C 29.95 in /  1014.1 hPa WNW 0.9 mph /  1.4 km/h 2.3 mph /  3.7 km/h 68 % 0.00 in /  0 mm
00:36 43.1 °F /  6.2 °C 33.6 °F /  0.9 °C 29.96 in /  1014.4 hPa WNW 0.3 mph /  0.5 km/h 1.2 mph /  1.9 km/h 69 % 0.00 in /  0 mm
00:41 42.9 °F /  6.1 °C 33.4 °F /  0.8 °C 29.96 in /  1014.4 hPa WNW 2.3 mph /  3.7 km/h 3.5 mph /  5.6 km/h 69 % 0.00 in /  0 mm
00:46 42.8 °F /  6 °C 33.7 °F /  0.9 °C 29.96 in /  1014.4 hPa NW 0.4 mph /  0.6 km/h 3.5 mph /  5.6 km/h 70 % 0.00 in /  0 mm
00:51 42.7 °F /  5.9 °C 33.6 °F /  0.9 °C 29.96 in /  1014.4 hPa WNW 0.3 mph /  0.5 km/h 2.3 mph /  3.7 km/h 70 % 0.00 in /  0 mm
00:56 42.6 °F /  5.9 °C 33.9 °F /  1.1 °C 29.96 in /  1014.4 hPa Calm     71 % 0.00 in /  0 mm
01:01 42.5 °F /  5.8 °C 33.4 °F /  0.8 °C 29.96 in /  1014.4 hPa Calm     70 % 0.00 in /  0 mm
01:06 42.2 °F /  5.7 °C 33.1 °F /  0.6 °C 29.96 in /  1014.4 hPa Calm   1.2 mph /  1.9 km/h 70 % 0.00 in /  0 mm
01:11 41.9 °F /  5.5 °C 33.5 °F /  0.8 °C 29.96 in /  1014.4 hPa Calm   1.2 mph /  1.9 km/h 72 % 0.00 in /  0 mm
01:16 41.7 °F /  5.4 °C 33.3 °F /  0.7 °C 29.96 in /  1014.4 hPa Calm     72 % 0.00 in /  0 mm
01:21 41.5 °F /  5.3 °C 33.5 °F /  0.8 °C 29.96 in /  1014.4 hPa Calm     73 % 0.00 in /  0 mm
01:26 41.2 °F /  5.1 °C 33.5 °F /  0.8 °C 29.96 in /  1014.4 hPa WNW 0.1 mph /  0.2 km/h 1.0 mph /  1.6 km/h 74 % 0.00 in /  0 mm
01:31 40.8 °F /  4.9 °C 33.5 °F /  0.8 °C 29.97 in /  1014.8 hPa WNW 1.1 mph /  1.8 km/h 2.3 mph /  3.7 km/h 75 % 0.00 in /  0 mm
01:36 40.7 °F /  4.8 °C 33.4 °F /  0.8 °C 29.96 in /  1014.4 hPa WNW 0.6 mph /  1 km/h 1.2 mph /  1.9 km/h 75 % 0.00 in /  0 mm
01:41 40.7 °F /  4.8 °C 33.4 °F /  0.8 °C 29.97 in /  1014.8 hPa WNW 0.1 mph /  0.2 km/h 1.2 mph /  1.9 km/h 75 % 0.00 in /  0 mm
01:51 40.5 °F /  4.7 °C 33.5 °F /  0.8 °C 29.97 in /  1014.8 hPa Calm     76 % 0.00 in /  0 mm
01:56 40.4 °F /  4.7 °C 33.4 °F /  0.8 °C 29.97 in /  1014.8 hPa Calm     76 % 0.00 in /  0 mm
02:01 40.3 °F /  4.6 °C 33.7 °F /  0.9 °C 29.97 in /  1014.8 hPa Calm     77 % 0.00 in /  0 mm
02:06 40.3 °F /  4.6 °C 33.7 °F /  0.9 °C 29.97 in /  1014.8 hPa Calm     77 % 0.00 in /  0 mm
02:11 40.2 °F /  4.6 °C 33.2 °F /  0.7 °C 29.97 in /  1014.8 hPa Calm     76 % 0.00 in /  0 mm
02:16 39.9 °F /  4.4 °C 32.9 °F /  0.5 °C 29.97 in /  1014.8 hPa Calm     76 % 0.00 in /  0 mm
02:21 39.7 °F /  4.3 °C 33.4 °F /  0.8 °C 29.97 in /  1014.8 hPa Calm     78 % 0.00 in /  0 mm
02:26 39.5 °F /  4.2 °C 33.5 °F /  0.8 °C 29.97 in /  1014.8 hPa Calm     79 % 0.00 in /  0 mm
02:31 39.5 °F /  4.2 °C 33.5 °F /  0.8 °C 29.97 in /  1014.8 hPa WNW 1.7 mph /  2.7 km/h 3.5 mph /  5.6 km/h 79 % 0.00 in /  0 mm
02:37 39.5 °F /  4.2 °C 33.8 °F /  1 °C 29.97 in /  1014.8 hPa Calm     80 % 0.00 in /  0 mm
02:42 39.6 °F /  4.2 °C 33.6 °F /  0.9 °C 29.97 in /  1014.8 hPa WNW 0.2 mph /  0.3 km/h 1.2 mph /  1.9 km/h 79 % 0.00 in /  0 mm
02:47 39.7 °F /  4.3 °C 33.7 °F /  0.9 °C 29.97 in /  1014.8 hPa NW 0.2 mph /  0.3 km/h 3.5 mph /  5.6 km/h 79 % 0.00 in /  0 mm
02:52 39.7 °F /  4.3 °C 33.7 °F /  0.9 °C 29.97 in /  1014.8 hPa NW 0.1 mph /  0.2 km/h   79 % 0.00 in /  0 mm
02:57 39.5 °F /  4.2 °C 32.9 °F /  0.5 °C 29.98 in /  1015.1 hPa Calm   1.2 mph /  1.9 km/h 77 % 0.00 in /  0 mm
03:02 39.4 °F /  4.1 °C 33.1 °F /  0.6 °C 29.98 in /  1015.1 hPa NW 0.6 mph /  1 km/h 2.0 mph /  3.2 km/h 78 % 0.00 in /  0 mm
03:07 39.4 °F /  4.1 °C 33.4 °F /  0.8 °C 29.98 in /  1015.1 hPa NW 0.8 mph /  1.3 km/h 2.0 mph /  3.2 km/h 79 % 0.00 in /  0 mm
03:12 39.3 °F /  4.1 °C 33.6 °F /  0.9 °C 29.98 in /  1015.1 hPa NW 1.8 mph /  2.9 km/h 2.3 mph /  3.7 km/h 80 % 0.00 in /  0 mm
03:17 39.4 °F /  4.1 °C 34.1 °F /  1.2 °C 29.99 in /  1015.5 hPa West 3.8 mph /  6.1 km/h 5.0 mph /  8 km/h 81 % 0.00 in /  0 mm
03:22 39.6 °F /  4.2 °C 34.2 °F /  1.2 °C 29.99 in /  1015.5 hPa West 1.1 mph /  1.8 km/h 2.3 mph /  3.7 km/h 81 % 0.00 in /  0 mm
03:27 39.8 °F /  4.3 °C 34.4 °F /  1.3 °C 29.99 in /  1015.5 hPa WNW 1.0 mph /  1.6 km/h 3.5 mph /  5.6 km/h 81 % 0.00 in /  0 mm
03:32 39.9 °F /  4.4 °C 34.5 °F /  1.4 °C 29.99 in /  1015.5 hPa WNW 2.3 mph /  3.7 km/h 4.6 mph /  7.4 km/h 81 % 0.00 in /  0 mm
03:37 40.1 °F /  4.5 °C 34.7 °F /  1.5 °C 29.99 in /  1015.5 hPa NW 1.3 mph /  2.1 km/h 3.5 mph /  5.6 km/h 81 % 0.00 in /  0 mm
03:42 40.4 °F /  4.7 °C 34.7 °F /  1.5 °C 30.00 in /  1015.8 hPa WNW 2.1 mph /  3.4 km/h 4.6 mph /  7.4 km/h 80 % 0.00 in /  0 mm
03:47 40.7 °F /  4.8 °C 34.7 °F /  1.5 °C 30.00 in /  1015.8 hPa West 3.8 mph /  6.1 km/h 5.8 mph /  9.3 km/h 79 % 0.00 in /  0 mm
03:52 41.0 °F /  5 °C 35.0 °F /  1.7 °C 30.00 in /  1015.8 hPa WNW 2.4 mph /  3.9 km/h 5.8 mph /  9.3 km/h 79 % 0.00 in /  0 mm
03:57 41.4 °F /  5.2 °C 35.1 °F /  1.7 °C 30.00 in /  1015.8 hPa WNW 2.1 mph /  3.4 km/h 2.3 mph /  3.7 km/h 78 % 0.00 in /  0 mm
04:02 41.6 °F /  5.3 °C 34.9 °F /  1.6 °C 30.00 in /  1015.8 hPa WNW 1.7 mph /  2.7 km/h 3.5 mph /  5.6 km/h 77 % 0.00 in /  0 mm
04:07 41.9 °F /  5.5 °C 34.9 °F /  1.6 °C 30.00 in /  1015.8 hPa WNW 2.0 mph /  3.2 km/h 4.0 mph /  6.4 km/h 76 % 0.00 in /  0 mm
04:12 42.0 °F /  5.6 °C 35.0 °F /  1.7 °C 30.01 in /  1016.1 hPa Calm   2.3 mph /  3.7 km/h 76 % 0.00 in /  0 mm
04:17 42.2 °F /  5.7 °C 34.8 °F /  1.6 °C 30.01 in /  1016.1 hPa WNW 0.8 mph /  1.3 km/h 2.3 mph /  3.7 km/h 75 % 0.00 in /  0 mm
04:22 42.3 °F /  5.7 °C 34.9 °F /  1.6 °C 30.01 in /  1016.1 hPa WNW 0.7 mph /  1.1 km/h 2.3 mph /  3.7 km/h 75 % 0.00 in /  0 mm
04:27 42.4 °F /  5.8 °C 34.7 °F /  1.5 °C 30.01 in /  1016.1 hPa Calm     74 % 0.00 in /  0 mm
04:32 42.5 °F /  5.8 °C 34.8 °F /  1.6 °C 30.02 in /  1016.5 hPa Calm     74 % 0.00 in /  0 mm
04:38 42.5 °F /  5.8 °C 34.8 °F /  1.6 °C 30.02 in /  1016.5 hPa Calm   1.0 mph /  1.6 km/h 74 % 0.00 in /  0 mm
04:43 42.4 °F /  5.8 °C 34.7 °F /  1.5 °C 30.02 in /  1016.5 hPa WNW 0.6 mph /  1 km/h 3.5 mph /  5.6 km/h 74 % 0.00 in /  0 mm
04:48 42.3 °F /  5.7 °C 34.6 °F /  1.4 °C 30.03 in /  1016.8 hPa WNW 0.1 mph /  0.2 km/h 1.2 mph /  1.9 km/h 74 % 0.00 in /  0 mm
04:53 42.1 °F /  5.6 °C 34.4 °F /  1.3 °C 30.02 in /  1016.5 hPa Calm     74 % 0.00 in /  0 mm
04:58 41.8 °F /  5.4 °C 34.5 °F /  1.4 °C 30.03 in /  1016.8 hPa West 2.4 mph /  3.9 km/h 3.5 mph /  5.6 km/h 75 % 0.00 in /  0 mm
05:03 41.5 °F /  5.3 °C 34.2 °F /  1.2 °C 30.03 in /  1016.8 hPa West 1.8 mph /  2.9 km/h 3.5 mph /  5.6 km/h 75 % 0.00 in /  0 mm
05:08 41.4 °F /  5.2 °C 34.4 °F /  1.3 °C 30.03 in /  1016.8 hPa West 1.1 mph /  1.8 km/h 2.3 mph /  3.7 km/h 76 % 0.00 in /  0 mm
05:13 41.2 °F /  5.1 °C 34.2 °F /  1.2 °C 30.04 in /  1017.2 hPa WNW 0.8 mph /  1.3 km/h 3.5 mph /  5.6 km/h 76 % 0.00 in /  0 mm
05:18 41.1 °F /  5.1 °C 34.4 °F /  1.3 °C 30.04 in /  1017.2 hPa WNW 0.7 mph /  1.1 km/h 3.5 mph /  5.6 km/h 77 % 0.00 in /  0 mm
05:23 41.1 °F /  5.1 °C 34.4 °F /  1.3 °C 30.04 in /  1017.2 hPa Calm   2.3 mph /  3.7 km/h 77 % 0.00 in /  0 mm
05:28 40.9 °F /  4.9 °C 33.9 °F /  1.1 °C 30.04 in /  1017.2 hPa WNW 0.4 mph /  0.6 km/h 1.2 mph /  1.9 km/h 76 % 0.00 in /  0 mm
05:33 40.7 °F /  4.8 °C 33.7 °F /  0.9 °C 30.05 in /  1017.5 hPa Calm     76 % 0.00 in /  0 mm
05:38 40.4 °F /  4.7 °C 33.4 °F /  0.8 °C 30.05 in /  1017.5 hPa Calm   1.2 mph /  1.9 km/h 76 % 0.00 in /  0 mm
05:43 39.8 °F /  4.3 °C 31.8 °F /  -0.1 °C 30.05 in /  1017.5 hPa Calm     73 % 0.00 in /  0 mm
05:48 39.3 °F /  4.1 °C 31.7 °F /  -0.2 °C 30.05 in /  1017.5 hPa Calm   1.0 mph /  1.6 km/h 74 % 0.00 in /  0 mm
05:53 38.5 °F /  3.6 °C 31.9 °F /  -0.1 °C 30.06 in /  1017.8 hPa NW 1.0 mph /  1.6 km/h 3.0 mph /  4.8 km/h 77 % 0.00 in /  0 mm
05:58 38.1 °F /  3.4 °C 32.5 °F /  0.3 °C 30.06 in /  1017.8 hPa West 1.8 mph /  2.9 km/h 3.5 mph /  5.6 km/h 80 % 0.00 in /  0 mm
06:03 37.9 °F /  3.3 °C 32.6 °F /  0.3 °C 30.06 in /  1017.8 hPa West 0.2 mph /  0.3 km/h 2.3 mph /  3.7 km/h 81 % 0.00 in /  0 mm
06:08 37.8 °F /  3.2 °C 32.8 °F /  0.4 °C 30.07 in /  1018.2 hPa West 0.8 mph /  1.3 km/h 2.3 mph /  3.7 km/h 82 % 0.00 in /  0 mm
06:13 37.7 °F /  3.2 °C 32.7 °F /  0.4 °C 30.07 in /  1018.2 hPa West 1.5 mph /  2.4 km/h 2.3 mph /  3.7 km/h 82 % 0.00 in /  0 mm
06:18 37.7 °F /  3.2 °C 33.0 °F /  0.6 °C 30.07 in /  1018.2 hPa West 1.4 mph /  2.3 km/h 2.3 mph /  3.7 km/h 83 % 0.00 in /  0 mm
06:23 37.6 °F /  3.1 °C 33.2 °F /  0.7 °C 30.07 in /  1018.2 hPa West 1.3 mph /  2.1 km/h 3.5 mph /  5.6 km/h 84 % 0.00 in /  0 mm
06:28 37.6 °F /  3.1 °C 33.2 °F /  0.7 °C 30.08 in /  1018.5 hPa Calm   1.2 mph /  1.9 km/h 84 % 0.00 in /  0 mm
06:33 37.5 °F /  3.1 °C 33.1 °F /  0.6 °C 30.08 in /  1018.5 hPa West 1.6 mph /  2.6 km/h 3.5 mph /  5.6 km/h 84 % 0.00 in /  0 mm
06:38 37.5 °F /  3.1 °C 33.1 °F /  0.6 °C 30.09 in /  1018.8 hPa West 2.1 mph /  3.4 km/h 3.5 mph /  5.6 km/h 84 % 0.00 in /  0 mm
06:44 37.5 °F /  3.1 °C 33.4 °F /  0.8 °C 30.09 in /  1018.8 hPa West 0.6 mph /  1 km/h 1.2 mph /  1.9 km/h 85 % 0.00 in /  0 mm
06:49 37.4 °F /  3 °C 33.0 °F /  0.6 °C 30.09 in /  1018.8 hPa West 1.8 mph /  2.9 km/h 3.5 mph /  5.6 km/h 84 % 0.00 in /  0 mm
06:54 37.4 °F /  3 °C 33.3 °F /  0.7 °C 30.09 in /  1018.8 hPa WSW 2.3 mph /  3.7 km/h 3.5 mph /  5.6 km/h 85 % 0.00 in /  0 mm
06:59 37.5 °F /  3.1 °C 33.4 °F /  0.8 °C 30.10 in /  1019.2 hPa WSW 1.3 mph /  2.1 km/h 3.5 mph /  5.6 km/h 85 % 0.00 in /  0 mm
07:04 37.6 °F /  3.1 °C 33.5 °F /  0.8 °C 30.10 in /  1019.2 hPa WSW 1.6 mph /  2.6 km/h 3.5 mph /  5.6 km/h 85 % 0.00 in /  0 mm
07:09 37.8 °F /  3.2 °C 33.7 °F /  0.9 °C 30.10 in /  1019.2 hPa SW 1.1 mph /  1.8 km/h 4.6 mph /  7.4 km/h 85 % 0.00 in /  0 mm
07:14 38.0 °F /  3.3 °C 33.9 °F /  1.1 °C 30.10 in /  1019.2 hPa SW 1.2 mph /  1.9 km/h 3.5 mph /  5.6 km/h 85 % 0.00 in /  0 mm
07:19 38.3 °F /  3.5 °C 34.2 °F /  1.2 °C 30.10 in /  1019.2 hPa SW 1.6 mph /  2.6 km/h 3.5 mph /  5.6 km/h 85 % 0.00 in /  0 mm
07:24 38.6 °F /  3.7 °C 34.5 °F /  1.4 °C 30.10 in /  1019.2 hPa WNW 1.1 mph /  1.8 km/h 2.3 mph /  3.7 km/h 85 % 0.00 in /  0 mm
07:29 39.0 °F /  3.9 °C 34.6 °F /  1.4 °C 30.10 in /  1019.2 hPa West 0.9 mph /  1.4 km/h 2.3 mph /  3.7 km/h 84 % 0.00 in /  0 mm
07:34 39.3 °F /  4.1 °C 34.9 °F /  1.6 °C 30.10 in /  1019.2 hPa NW 1.3 mph /  2.1 km/h 3.5 mph /  5.6 km/h 84 % 0.00 in /  0 mm
07:39 39.7 °F /  4.3 °C 35.0 °F /  1.7 °C 30.11 in /  1019.5 hPa WNW 0.5 mph /  0.8 km/h 3.0 mph /  4.8 km/h 83 % 0.00 in /  0 mm
07:44 40.0 °F /  4.4 °C 34.9 °F /  1.6 °C 30.11 in /  1019.5 hPa WNW 0.7 mph /  1.1 km/h 3.5 mph /  5.6 km/h 82 % 0.00 in /  0 mm
07:49 40.4 °F /  4.7 °C 35.0 °F /  1.7 °C 30.11 in /  1019.5 hPa WNW 2.4 mph /  3.9 km/h 5.0 mph /  8 km/h 81 % 0.00 in /  0 mm
07:54 40.7 °F /  4.8 °C 35.0 °F /  1.7 °C 30.11 in /  1019.5 hPa WNW 3.0 mph /  4.8 km/h 4.0 mph /  6.4 km/h 80 % 0.00 in /  0 mm
07:59 41.1 °F /  5.1 °C 35.1 °F /  1.7 °C 30.11 in /  1019.5 hPa WNW 2.7 mph /  4.3 km/h 6.9 mph /  11.1 km/h 79 % 0.00 in /  0 mm
08:04 41.4 °F /  5.2 °C 35.4 °F /  1.9 °C 30.11 in /  1019.5 hPa West 2.0 mph /  3.2 km/h 3.5 mph /  5.6 km/h 79 % 0.00 in /  0 mm
08:09 41.8 °F /  5.4 °C 35.4 °F /  1.9 °C 30.12 in /  1019.9 hPa WSW 0.7 mph /  1.1 km/h 2.0 mph /  3.2 km/h 78 % 0.00 in /  0 mm
08:14 42.2 °F /  5.7 °C 35.8 °F /  2.1 °C 30.12 in /  1019.9 hPa WNW 1.7 mph /  2.7 km/h 4.6 mph /  7.4 km/h 78 % 0.00 in /  0 mm
08:20 42.7 °F /  5.9 °C 35.7 °F /  2.1 °C 30.12 in /  1019.9 hPa WSW 2.9 mph /  4.7 km/h 3.5 mph /  5.6 km/h 76 % 0.00 in /  0 mm
08:24 43.1 °F /  6.2 °C 35.7 °F /  2.1 °C 30.12 in /  1019.9 hPa WNW 1.5 mph /  2.4 km/h 3.5 mph /  5.6 km/h 75 % 0.00 in /  0 mm
08:30 43.4 °F /  6.3 °C 36.0 °F /  2.2 °C 30.12 in /  1019.9 hPa WNW 3.5 mph /  5.6 km/h 5.8 mph /  9.3 km/h 75 % 0.00 in /  0 mm
08:35 43.8 °F /  6.6 °C 35.7 °F /  2.1 °C 30.12 in /  1019.9 hPa WNW 4.6 mph /  7.4 km/h 6.9 mph /  11.1 km/h 73 % 0.00 in /  0 mm
08:40 44.1 °F /  6.7 °C 36.0 °F /  2.2 °C 30.13 in /  1020.2 hPa NW 2.8 mph /  4.5 km/h 4.6 mph /  7.4 km/h 73 % 0.00 in /  0 mm
08:45 44.4 °F /  6.9 °C 35.9 °F /  2.2 °C 30.13 in /  1020.2 hPa NNW 2.5 mph /  4 km/h 4.6 mph /  7.4 km/h 72 % 0.00 in /  0 mm
08:50 44.7 °F /  7.1 °C 36.2 °F /  2.3 °C 30.13 in /  1020.2 hPa WNW 1.5 mph /  2.4 km/h 3.5 mph /  5.6 km/h 72 % 0.00 in /  0 mm
08:55 45.0 °F /  7.2 °C 36.5 °F /  2.5 °C 30.13 in /  1020.2 hPa WNW 2.2 mph /  3.5 km/h 4.6 mph /  7.4 km/h 72 % 0.00 in /  0 mm
09:00 45.2 °F /  7.3 °C 36.4 °F /  2.4 °C 30.14 in /  1020.5 hPa NNW 2.1 mph /  3.4 km/h 4.6 mph /  7.4 km/h 71 % 0.00 in /  0 mm
09:05 45.6 °F /  7.6 °C 36.7 °F /  2.6 °C 30.14 in /  1020.5 hPa WNW 2.4 mph /  3.9 km/h 6.0 mph /  9.7 km/h 71 % 0.00 in /  0 mm
09:10 45.8 °F /  7.7 °C 36.6 °F /  2.6 °C 30.13 in /  1020.2 hPa WNW 3.1 mph /  5 km/h 4.6 mph /  7.4 km/h 70 % 0.00 in /  0 mm
09:15 46.1 °F /  7.8 °C 36.9 °F /  2.7 °C 30.14 in /  1020.5 hPa WNW 1.0 mph /  1.6 km/h 4.6 mph /  7.4 km/h 70 % 0.00 in /  0 mm
09:20 46.5 °F /  8.1 °C 36.5 °F /  2.5 °C 30.13 in /  1020.2 hPa WNW 2.5 mph /  4 km/h 7.0 mph /  11.3 km/h 68 % 0.00 in /  0 mm
09:25 46.7 °F /  8.2 °C 36.7 °F /  2.6 °C 30.14 in /  1020.5 hPa WNW 3.2 mph /  5.1 km/h 6.9 mph /  11.1 km/h 68 % 0.00 in /  0 mm
09:30 46.9 °F /  8.3 °C 36.5 °F /  2.5 °C 30.13 in /  1020.2 hPa WNW 3.8 mph /  6.1 km/h 6.9 mph /  11.1 km/h 67 % 0.00 in /  0 mm
09:35 47.2 °F /  8.4 °C 37.2 °F /  2.9 °C 30.14 in /  1020.5 hPa NW 1.0 mph /  1.6 km/h 3.5 mph /  5.6 km/h 68 % 0.00 in /  0 mm
09:40 47.6 °F /  8.7 °C 37.2 °F /  2.9 °C 30.14 in /  1020.5 hPa West 4.1 mph /  6.6 km/h 8.0 mph /  12.9 km/h 67 % 0.00 in /  0 mm
09:45 47.8 °F /  8.8 °C 37.4 °F /  3 °C 30.14 in /  1020.5 hPa WNW 4.0 mph /  6.4 km/h 6.9 mph /  11.1 km/h 67 % 0.00 in /  0 mm
09:47 47.9 °F /  8.8 °C 37.5 °F /  3.1 °C 30.14 in /  1020.5 hPa NW 2.0 mph /  3.2 km/h 5.8 mph /  9.3 km/h 67 % 0.00 in /  0 mm
09:52 48.3 °F /  9.1 °C 37.5 °F /  3.1 °C 30.15 in /  1020.9 hPa NNW 2.6 mph /  4.2 km/h 6.9 mph /  11.1 km/h 66 % 0.00 in /  0 mm
09:57 48.6 °F /  9.2 °C 37.7 °F /  3.2 °C 30.15 in /  1020.9 hPa NW 3.5 mph /  5.6 km/h 5.0 mph /  8 km/h 66 % 0.00 in /  0 mm
10:02 48.8 °F /  9.3 °C 37.2 °F /  2.9 °C 30.15 in /  1020.9 hPa WNW 4.7 mph /  7.6 km/h 6.0 mph /  9.7 km/h 64 % 0.00 in /  0 mm
10:07 49.0 °F /  9.4 °C 37.3 °F /  2.9 °C 30.15 in /  1020.9 hPa NW 3.3 mph /  5.3 km/h 4.6 mph /  7.4 km/h 64 % 0.00 in /  0 mm
10:12 49.2 °F /  9.6 °C 37.5 °F /  3.1 °C 30.15 in /  1020.9 hPa NNW 2.7 mph /  4.3 km/h 6.9 mph /  11.1 km/h 64 % 0.00 in /  0 mm
10:17 49.3 °F /  9.6 °C 36.8 °F /  2.7 °C 30.15 in /  1020.9 hPa NNW 4.3 mph /  6.9 km/h 8.1 mph /  13 km/h 62 % 0.00 in /  0 mm
10:22 49.5 °F /  9.7 °C 37.4 °F /  3 °C 30.15 in /  1020.9 hPa NNW 4.1 mph /  6.6 km/h 5.8 mph /  9.3 km/h 63 % 0.00 in /  0 mm
10:27 49.8 °F /  9.9 °C 37.3 °F /  2.9 °C 30.15 in /  1020.9 hPa NW 3.8 mph /  6.1 km/h 6.9 mph /  11.1 km/h 62 % 0.00 in /  0 mm
10:32 49.9 °F /  9.9 °C 37.8 °F /  3.2 °C 30.15 in /  1020.9 hPa NNW 4.0 mph /  6.4 km/h 8.1 mph /  13 km/h 63 % 0.00 in /  0 mm
10:37 49.9 °F /  9.9 °C 37.0 °F /  2.8 °C 30.15 in /  1020.9 hPa NNW 3.4 mph /  5.5 km/h 6.0 mph /  9.7 km/h 61 % 0.00 in /  0 mm
10:43 50.1 °F /  10.1 °C 36.7 °F /  2.6 °C 30.15 in /  1020.9 hPa NW 3.2 mph /  5.1 km/h 5.8 mph /  9.3 km/h 60 % 0.00 in /  0 mm
10:48 50.3 °F /  10.2 °C 36.9 °F /  2.7 °C 30.16 in /  1021.2 hPa NW 4.2 mph /  6.8 km/h 5.8 mph /  9.3 km/h 60 % 0.00 in /  0 mm
10:53 50.5 °F /  10.3 °C 37.1 °F /  2.8 °C 30.16 in /  1021.2 hPa NNW 3.7 mph /  6 km/h 7.0 mph /  11.3 km/h 60 % 0.00 in /  0 mm
10:58 50.6 °F /  10.3 °C 35.9 °F /  2.2 °C 30.16 in /  1021.2 hPa NNW 5.1 mph /  8.2 km/h 8.1 mph /  13 km/h 57 % 0.00 in /  0 mm
11:03 50.7 °F /  10.4 °C 36.5 °F /  2.5 °C 30.15 in /  1020.9 hPa NW 4.6 mph /  7.4 km/h 8.1 mph /  13 km/h 58 % 0.00 in /  0 mm
11:08 51.0 °F /  10.6 °C 35.4 °F /  1.9 °C 30.15 in /  1020.9 hPa WNW 5.0 mph /  8 km/h 9.2 mph /  14.8 km/h 55 % 0.00 in /  0 mm
11:13 51.2 °F /  10.7 °C 36.5 °F /  2.5 °C 30.16 in /  1021.2 hPa NW 2.1 mph /  3.4 km/h 4.6 mph /  7.4 km/h 57 % 0.00 in /  0 mm
11:18 51.9 °F /  11.1 °C 36.7 °F /  2.6 °C 30.16 in /  1021.2 hPa NNW 1.9 mph /  3.1 km/h 6.0 mph /  9.7 km/h 56 % 0.00 in /  0 mm
11:23 52.1 °F /  11.2 °C 35.0 °F /  1.7 °C 30.15 in /  1020.9 hPa NNW 5.2 mph /  8.4 km/h 6.9 mph /  11.1 km/h 52 % 0.00 in /  0 mm
11:28 51.9 °F /  11.1 °C 33.8 °F /  1 °C 30.16 in /  1021.2 hPa NNW 5.5 mph /  8.9 km/h 6.9 mph /  11.1 km/h 50 % 0.00 in /  0 mm
11:33 51.9 °F /  11.1 °C 34.3 °F /  1.3 °C 30.16 in /  1021.2 hPa NW 6.2 mph /  10 km/h 8.1 mph /  13 km/h 51 % 0.00 in /  0 mm
11:38 51.9 °F /  11.1 °C 34.8 °F /  1.6 °C 30.15 in /  1020.9 hPa NW 3.6 mph /  5.8 km/h 9.2 mph /  14.8 km/h 52 % 0.00 in /  0 mm
11:43 51.9 °F /  11.1 °C 35.3 °F /  1.8 °C 30.15 in /  1020.9 hPa NW 2.0 mph /  3.2 km/h 9.0 mph /  14.5 km/h 53 % 0.00 in /  0 mm
11:48 52.0 °F /  11.1 °C 33.4 °F /  0.8 °C 30.15 in /  1020.9 hPa NW 3.0 mph /  4.8 km/h 7.0 mph /  11.3 km/h 49 % 0.00 in /  0 mm
11:53 52.2 °F /  11.2 °C 34.1 °F /  1.2 °C 30.16 in /  1021.2 hPa NW 6.0 mph /  9.7 km/h 12.0 mph /  19.3 km/h 50 % 0.00 in /  0 mm
11:58 52.3 °F /  11.3 °C 34.7 °F /  1.5 °C 30.15 in /  1020.9 hPa NNW 2.2 mph /  3.5 km/h 3.5 mph /  5.6 km/h 51 % 0.00 in /  0 mm
12:03 52.4 °F /  11.3 °C 34.8 °F /  1.6 °C 30.15 in /  1020.9 hPa NW 5.0 mph /  8 km/h 9.0 mph /  14.5 km/h 51 % 0.00 in /  0 mm
12:08 52.5 °F /  11.4 °C 34.4 °F /  1.3 °C 30.14 in /  1020.5 hPa NNW 5.0 mph /  8 km/h 8.0 mph /  12.9 km/h 50 % 0.00 in /  0 mm
12:13 52.7 °F /  11.5 °C 34.6 °F /  1.4 °C 30.14 in /  1020.5 hPa NW 3.3 mph /  5.3 km/h 9.2 mph /  14.8 km/h 50 % 0.00 in /  0 mm
12:18 52.9 °F /  11.6 °C 33.7 °F /  0.9 °C 30.14 in /  1020.5 hPa NW 6.0 mph /  9.7 km/h 9.0 mph /  14.5 km/h 48 % 0.00 in /  0 mm
12:23 52.9 °F /  11.6 °C 33.2 °F /  0.7 °C 30.14 in /  1020.5 hPa NW 5.0 mph /  8 km/h 7.0 mph /  11.3 km/h 47 % 0.00 in /  0 mm
12:28 53.1 °F /  11.7 °C 34.4 °F /  1.3 °C 30.14 in /  1020.5 hPa NW 2.0 mph /  3.2 km/h 5.0 mph /  8 km/h 49 % 0.00 in /  0 mm
12:33 53.5 °F /  11.9 °C 33.7 °F /  0.9 °C 30.14 in /  1020.5 hPa NW 5.0 mph /  8 km/h 9.0 mph /  14.5 km/h 47 % 0.00 in /  0 mm
12:38 53.6 °F /  12 °C 33.3 °F /  0.7 °C 30.14 in /  1020.5 hPa NNW 5.0 mph /  8 km/h 9.0 mph /  14.5 km/h 46 % 0.00 in /  0 mm
12:43 53.7 °F /  12.1 °C 35.0 °F /  1.7 °C 30.14 in /  1020.5 hPa NNW 2.0 mph /  3.2 km/h 7.0 mph /  11.3 km/h 49 % 0.00 in /  0 mm
12:48 53.9 °F /  12.2 °C 35.7 °F /  2.1 °C 30.14 in /  1020.5 hPa NW 2.7 mph /  4.3 km/h 5.0 mph /  8 km/h 50 % 0.00 in /  0 mm
12:50 54.0 °F /  12.2 °C 34.7 °F /  1.5 °C 30.14 in /  1020.5 hPa NNW 3.0 mph /  4.8 km/h 5.0 mph /  8 km/h 48 % 0.00 in /  0 mm
12:55 53.8 °F /  12.1 °C 34.6 °F /  1.4 °C 30.14 in /  1020.5 hPa NNW 3.8 mph /  6.1 km/h 5.0 mph /  8 km/h 48 % 0.00 in /  0 mm
12:56 53.8 °F /  12.1 °C 34.6 °F /  1.4 °C 30.14 in /  1020.5 hPa NW 1.5 mph /  2.4 km/h 3.5 mph /  5.6 km/h 48 % 0.00 in /  0 mm
13:01 53.5 °F /  11.9 °C 32.1 °F /  0.1 °C 30.14 in /  1020.5 hPa NNW 5.7 mph /  9.2 km/h 10.4 mph /  16.7 km/h 44 % 0.00 in /  0 mm
13:07 53.3 °F /  11.8 °C 33.0 °F /  0.6 °C 30.14 in /  1020.5 hPa NW 2.7 mph /  4.3 km/h 6.0 mph /  9.7 km/h 46 % 0.00 in /  0 mm
13:12 53.2 °F /  11.8 °C 34.5 °F /  1.4 °C 30.13 in /  1020.2 hPa NW 4.6 mph /  7.4 km/h 5.8 mph /  9.3 km/h 49 % 0.00 in /  0 mm
13:17 53.2 °F /  11.8 °C 34.5 °F /  1.4 °C 30.14 in /  1020.5 hPa NE 2.0 mph /  3.2 km/h 5.0 mph /  8 km/h 49 % 0.00 in /  0 mm
13:22 53.5 °F /  11.9 °C 33.7 °F /  0.9 °C 30.14 in /  1020.5 hPa North 1.8 mph /  2.9 km/h 4.6 mph /  7.4 km/h 47 % 0.00 in /  0 mm
13:27 53.9 °F /  12.2 °C 33.6 °F /  0.9 °C 30.13 in /  1020.2 hPa North 2.4 mph /  3.9 km/h 3.5 mph /  5.6 km/h 46 % 0.00 in /  0 mm
13:32 53.9 °F /  12.2 °C 30.7 °F /  -0.7 °C 30.13 in /  1020.2 hPa North 3.3 mph /  5.3 km/h 4.6 mph /  7.4 km/h 41 % 0.00 in /  0 mm
13:37 54.0 °F /  12.2 °C 32.0 °F /  0 °C 30.13 in /  1020.2 hPa North 3.2 mph /  5.1 km/h 6.0 mph /  9.7 km/h 43 % 0.00 in /  0 mm
13:42 54.0 °F /  12.2 °C 32.0 °F /  0 °C 30.13 in /  1020.2 hPa North 3.5 mph /  5.6 km/h 4.6 mph /  7.4 km/h 43 % 0.00 in /  0 mm
13:47 53.9 °F /  12.2 °C 31.9 °F /  -0.1 °C 30.13 in /  1020.2 hPa NNW 0.7 mph /  1.1 km/h 3.5 mph /  5.6 km/h 43 % 0.00 in /  0 mm
13:52 53.7 °F /  12.1 °C 31.1 °F /  -0.5 °C 30.13 in /  1020.2 hPa NNW 1.2 mph /  1.9 km/h 4.6 mph /  7.4 km/h 42 % 0.00 in /  0 mm
13:57 53.6 °F /  12 °C 31.0 °F /  -0.6 °C 30.13 in /  1020.2 hPa NNE 4.1 mph /  6.6 km/h 5.0 mph /  8 km/h 42 % 0.00 in /  0 mm
14:02 53.5 °F /  11.9 °C 31.0 °F /  -0.6 °C 30.13 in /  1020.2 hPa NE 4.6 mph /  7.4 km/h 6.9 mph /  11.1 km/h 42 % 0.00 in /  0 mm
14:07 53.3 °F /  11.8 °C 30.8 °F /  -0.7 °C 30.13 in /  1020.2 hPa NNE 6.5 mph /  10.5 km/h 11.5 mph /  18.5 km/h 42 % 0.00 in /  0 mm
14:12 52.8 °F /  11.6 °C 29.7 °F /  -1.3 °C 30.13 in /  1020.2 hPa North 4.9 mph /  7.9 km/h 9.2 mph /  14.8 km/h 41 % 0.00 in /  0 mm
14:17 52.5 °F /  11.4 °C 30.0 °F /  -1.1 °C 30.14 in /  1020.5 hPa North 6.1 mph /  9.8 km/h 11.5 mph /  18.5 km/h 42 % 0.00 in /  0 mm
14:22 52.2 °F /  11.2 °C 29.8 °F /  -1.2 °C 30.13 in /  1020.2 hPa North 4.5 mph /  7.2 km/h 7.0 mph /  11.3 km/h 42 % 0.00 in /  0 mm
14:27 51.8 °F /  11 °C 30.0 °F /  -1.1 °C 30.13 in /  1020.2 hPa NNE 5.2 mph /  8.4 km/h 11.5 mph /  18.5 km/h 43 % 0.00 in /  0 mm
14:32 51.7 °F /  10.9 °C 28.7 °F /  -1.8 °C 30.13 in /  1020.2 hPa NNE 6.1 mph /  9.8 km/h 11.5 mph /  18.5 km/h 41 % 0.00 in /  0 mm
14:37 51.5 °F /  10.8 °C 27.9 °F /  -2.3 °C 30.13 in /  1020.2 hPa NNW 6.1 mph /  9.8 km/h 11.5 mph /  18.5 km/h 40 % 0.00 in /  0 mm
14:42 51.3 °F /  10.7 °C 29.5 °F /  -1.4 °C 30.13 in /  1020.2 hPa NNW 3.2 mph /  5.1 km/h 8.1 mph /  13 km/h 43 % 0.00 in /  0 mm
14:43 51.3 °F /  10.7 °C 29.5 °F /  -1.4 °C 30.13 in /  1020.2 hPa North 3.0 mph /  4.8 km/h 8.0 mph /  12.9 km/h 43 % 0.00 in /  0 mm
14:48 51.1 °F /  10.6 °C 28.8 °F /  -1.8 °C 30.13 in /  1020.2 hPa North 6.0 mph /  9.7 km/h 9.0 mph /  14.5 km/h 42 % 0.00 in /  0 mm
14:53 50.9 °F /  10.5 °C 28.0 °F /  -2.2 °C 30.13 in /  1020.2 hPa North 6.0 mph /  9.7 km/h 12.0 mph /  19.3 km/h 41 % 0.00 in /  0 mm
14:58 50.6 °F /  10.3 °C 28.3 °F /  -2.1 °C 30.13 in /  1020.2 hPa NNE 6.5 mph /  10.5 km/h 10.4 mph /  16.7 km/h 42 % 0.00 in /  0 mm
15:03 50.3 °F /  10.2 °C 27.5 °F /  -2.5 °C 30.14 in /  1020.5 hPa NNE 7.9 mph /  12.7 km/h 12.0 mph /  19.3 km/h 41 % 0.00 in /  0 mm
15:08 50.0 °F /  10 °C 26.6 °F /  -3 °C 30.14 in /  1020.5 hPa North 4.9 mph /  7.9 km/h 11.5 mph /  18.5 km/h 40 % 0.00 in /  0 mm
15:13 49.8 °F /  9.9 °C 27.6 °F /  -2.4 °C 30.14 in /  1020.5 hPa NNE 6.2 mph /  10 km/h 11.5 mph /  18.5 km/h 42 % 0.00 in /  0 mm
15:18 49.5 °F /  9.7 °C 27.9 °F /  -2.3 °C 30.14 in /  1020.5 hPa NNE 7.1 mph /  11.4 km/h 11.5 mph /  18.5 km/h 43 % 0.00 in /  0 mm
15:23 49.1 °F /  9.5 °C 27.5 °F /  -2.5 °C 30.14 in /  1020.5 hPa NNW 5.5 mph /  8.9 km/h 9.2 mph /  14.8 km/h 43 % 0.00 in /  0 mm
15:28 48.9 °F /  9.4 °C 28.5 °F /  -1.9 °C 30.15 in /  1020.9 hPa NNW 5.5 mph /  8.9 km/h 8.1 mph /  13 km/h 45 % 0.00 in /  0 mm
15:33 48.6 °F /  9.2 °C 27.6 °F /  -2.4 °C 30.15 in /  1020.9 hPa NNE 7.7 mph /  12.4 km/h 12.7 mph /  20.4 km/h 44 % 0.00 in /  0 mm
15:38 48.3 °F /  9.1 °C 25.7 °F /  -3.5 °C 30.15 in /  1020.9 hPa North 7.0 mph /  11.3 km/h 11.0 mph /  17.7 km/h 41 % 0.00 in /  0 mm
15:43 48.2 °F /  9 °C 26.2 °F /  -3.2 °C 30.15 in /  1020.9 hPa NNE 6.4 mph /  10.3 km/h 12.7 mph /  20.4 km/h 42 % 0.00 in /  0 mm
15:49 48.1 °F /  8.9 °C 28.3 °F /  -2.1 °C 30.16 in /  1021.2 hPa North 6.7 mph /  10.8 km/h 9.2 mph /  14.8 km/h 46 % 0.00 in /  0 mm
15:54 47.8 °F /  8.8 °C 28.0 °F /  -2.2 °C 30.16 in /  1021.2 hPa North 7.2 mph /  11.6 km/h 9.2 mph /  14.8 km/h 46 % 0.00 in /  0 mm
15:59 47.5 °F /  8.6 °C 27.2 °F /  -2.7 °C 30.16 in /  1021.2 hPa NNE 6.9 mph /  11.1 km/h 9.2 mph /  14.8 km/h 45 % 0.00 in /  0 mm
16:04 47.3 °F /  8.5 °C 27.0 °F /  -2.8 °C 30.17 in /  1021.6 hPa NNW 6.7 mph /  10.8 km/h 10.4 mph /  16.7 km/h 45 % 0.00 in /  0 mm
16:09 47.0 °F /  8.3 °C 26.7 °F /  -2.9 °C 30.18 in /  1021.9 hPa NE 7.5 mph /  12.1 km/h 11.0 mph /  17.7 km/h 45 % 0.00 in /  0 mm
16:14 46.9 °F /  8.3 °C 26.6 °F /  -3 °C 30.17 in /  1021.6 hPa NE 6.4 mph /  10.3 km/h 10.4 mph /  16.7 km/h 45 % 0.00 in /  0 mm
16:19 46.7 °F /  8.2 °C 28.0 °F /  -2.2 °C 30.17 in /  1021.6 hPa NNE 4.2 mph /  6.8 km/h 7.0 mph /  11.3 km/h 48 % 0.00 in /  0 mm
16:24 46.6 °F /  8.1 °C 28.9 °F /  -1.7 °C 30.18 in /  1021.9 hPa NNE 3.8 mph /  6.1 km/h 5.8 mph /  9.3 km/h 50 % 0.00 in /  0 mm
16:29 46.3 °F /  7.9 °C 28.7 °F /  -1.8 °C 30.18 in /  1021.9 hPa North 5.6 mph /  9 km/h 8.1 mph /  13 km/h 50 % 0.00 in /  0 mm
16:34 46.0 °F /  7.8 °C 26.4 °F /  -3.1 °C 30.19 in /  1022.2 hPa NE 7.5 mph /  12.1 km/h 11.5 mph /  18.5 km/h 46 % 0.00 in /  0 mm
16:39 45.9 °F /  7.7 °C 25.7 °F /  -3.5 °C 30.19 in /  1022.2 hPa NE 6.8 mph /  10.9 km/h 11.5 mph /  18.5 km/h 45 % 0.00 in /  0 mm
16:44 45.7 °F /  7.6 °C 26.6 °F /  -3 °C 30.20 in /  1022.6 hPa NNE 8.5 mph /  13.7 km/h 10.4 mph /  16.7 km/h 47 % 0.00 in /  0 mm
16:49 45.4 °F /  7.4 °C 26.8 °F /  -2.9 °C 30.19 in /  1022.2 hPa NNE 7.5 mph /  12.1 km/h 8.1 mph /  13 km/h 48 % 0.00 in /  0 mm
16:54 45.2 °F /  7.3 °C 27.6 °F /  -2.4 °C 30.20 in /  1022.6 hPa NNE 6.5 mph /  10.5 km/h 11.5 mph /  18.5 km/h 50 % 0.00 in /  0 mm
16:59 44.9 °F /  7.2 °C 26.9 °F /  -2.8 °C 30.20 in /  1022.6 hPa North 7.4 mph /  11.9 km/h 10.4 mph /  16.7 km/h 49 % 0.00 in /  0 mm
17:04 44.6 °F /  7 °C 26.6 °F /  -3 °C 30.20 in /  1022.6 hPa NNE 6.1 mph /  9.8 km/h 9.2 mph /  14.8 km/h 49 % 0.00 in /  0 mm
17:09 44.4 °F /  6.9 °C 25.9 °F /  -3.4 °C 30.21 in /  1022.9 hPa NE 8.4 mph /  13.5 km/h 12.7 mph /  20.4 km/h 48 % 0.00 in /  0 mm
17:14 44.2 °F /  6.8 °C 25.2 °F /  -3.8 °C 30.21 in /  1022.9 hPa NNE 7.0 mph /  11.3 km/h 9.2 mph /  14.8 km/h 47 % 0.00 in /  0 mm
17:19 44.0 °F /  6.7 °C 26.0 °F /  -3.3 °C 30.21 in /  1022.9 hPa NNE 7.8 mph /  12.6 km/h 10.4 mph /  16.7 km/h 49 % 0.00 in /  0 mm
17:24 43.8 °F /  6.6 °C 27.3 °F /  -2.6 °C 30.22 in /  1023.2 hPa NNE 4.7 mph /  7.6 km/h 8.1 mph /  13 km/h 52 % 0.00 in /  0 mm
17:29 43.6 °F /  6.4 °C 27.1 °F /  -2.7 °C 30.22 in /  1023.2 hPa North 6.8 mph /  10.9 km/h 9.2 mph /  14.8 km/h 52 % 0.00 in /  0 mm
17:34 43.4 °F /  6.3 °C 26.9 °F /  -2.8 °C 30.22 in /  1023.2 hPa NNE 5.5 mph /  8.9 km/h 9.0 mph /  14.5 km/h 52 % 0.00 in /  0 mm
17:39 43.2 °F /  6.2 °C 26.3 °F /  -3.2 °C 30.22 in /  1023.2 hPa North 6.3 mph /  10.1 km/h 10.4 mph /  16.7 km/h 51 % 0.00 in /  0 mm
17:44 43.2 °F /  6.2 °C 24.3 °F /  -4.3 °C 30.23 in /  1023.6 hPa NNE 9.8 mph /  15.8 km/h 16.1 mph /  25.9 km/h 47 % 0.00 in /  0 mm
17:50 43.2 °F /  6.2 °C 25.3 °F /  -3.7 °C 30.23 in /  1023.6 hPa NNE 6.1 mph /  9.8 km/h 9.2 mph /  14.8 km/h 49 % 0.00 in /  0 mm
17:55 43.0 °F /  6.1 °C 27.5 °F /  -2.5 °C 30.24 in /  1023.9 hPa North 4.6 mph /  7.4 km/h 10.4 mph /  16.7 km/h 54 % 0.00 in /  0 mm
18:00 42.8 °F /  6 °C 27.7 °F /  -2.4 °C 30.24 in /  1023.9 hPa North 6.2 mph /  10 km/h 12.0 mph /  19.3 km/h 55 % 0.00 in /  0 mm
18:05 42.6 °F /  5.9 °C 27.1 °F /  -2.7 °C 30.24 in /  1023.9 hPa NNE 6.1 mph /  9.8 km/h 14.0 mph /  22.5 km/h 54 % 0.00 in /  0 mm
18:10 42.6 °F /  5.9 °C 26.6 °F /  -3 °C 30.25 in /  1024.3 hPa NNE 7.1 mph /  11.4 km/h 11.0 mph /  17.7 km/h 53 % 0.00 in /  0 mm
18:15 42.5 °F /  5.8 °C 27.5 °F /  -2.5 °C 30.25 in /  1024.3 hPa North 6.4 mph /  10.3 km/h 9.2 mph /  14.8 km/h 55 % 0.00 in /  0 mm
18:20 42.3 °F /  5.7 °C 29.0 °F /  -1.7 °C 30.25 in /  1024.3 hPa NNE 5.7 mph /  9.2 km/h 9.2 mph /  14.8 km/h 59 % 0.00 in /  0 mm
18:25 42.1 °F /  5.6 °C 27.9 °F /  -2.3 °C 30.26 in /  1024.6 hPa NE 6.2 mph /  10 km/h 12.0 mph /  19.3 km/h 57 % 0.00 in /  0 mm
18:30 41.9 °F /  5.5 °C 26.9 °F /  -2.8 °C 30.26 in /  1024.6 hPa NNE 7.2 mph /  11.6 km/h 11.5 mph /  18.5 km/h 55 % 0.00 in /  0 mm
18:35 41.9 °F /  5.5 °C 26.0 °F /  -3.3 °C 30.26 in /  1024.6 hPa North 7.2 mph /  11.6 km/h 11.5 mph /  18.5 km/h 53 % 0.00 in /  0 mm
18:40 41.9 °F /  5.5 °C 25.1 °F /  -3.8 °C 30.26 in /  1024.6 hPa North 8.5 mph /  13.7 km/h 13.8 mph /  22.2 km/h 51 % 0.00 in /  0 mm
18:45 42.0 °F /  5.6 °C 25.2 °F /  -3.8 °C 30.26 in /  1024.6 hPa North 7.3 mph /  11.7 km/h 9.2 mph /  14.8 km/h 51 % 0.00 in /  0 mm
18:50 42.0 °F /  5.6 °C 26.1 °F /  -3.3 °C 30.27 in /  1024.9 hPa NNE 4.1 mph /  6.6 km/h 8.1 mph /  13 km/h 53 % 0.00 in /  0 mm
18:55 41.9 °F /  5.5 °C 26.0 °F /  -3.3 °C 30.27 in /  1024.9 hPa NW 3.4 mph /  5.5 km/h 4.6 mph /  7.4 km/h 53 % 0.00 in /  0 mm
19:00 41.8 °F /  5.4 °C 26.4 °F /  -3.1 °C 30.28 in /  1025.3 hPa NW 4.9 mph /  7.9 km/h 7.0 mph /  11.3 km/h 54 % 0.00 in /  0 mm
19:05 41.6 °F /  5.3 °C 27.1 °F /  -2.7 °C 30.28 in /  1025.3 hPa NNW 5.2 mph /  8.4 km/h 11.5 mph /  18.5 km/h 56 % 0.00 in /  0 mm
19:10 41.5 °F /  5.3 °C 27.0 °F /  -2.8 °C 30.29 in /  1025.6 hPa North 3.6 mph /  5.8 km/h 6.0 mph /  9.7 km/h 56 % 0.00 in /  0 mm
19:15 41.4 °F /  5.2 °C 26.0 °F /  -3.3 °C 30.29 in /  1025.6 hPa NNE 3.5 mph /  5.6 km/h 5.8 mph /  9.3 km/h 54 % 0.00 in /  0 mm
19:20 41.3 °F /  5.2 °C 25.9 °F /  -3.4 °C 30.30 in /  1026 hPa NNE 4.1 mph /  6.6 km/h 8.1 mph /  13 km/h 54 % 0.00 in /  0 mm
19:25 41.2 °F /  5.1 °C 26.2 °F /  -3.2 °C 30.30 in /  1026 hPa NNE 3.3 mph /  5.3 km/h 5.8 mph /  9.3 km/h 55 % 0.00 in /  0 mm
19:30 41.1 °F /  5.1 °C 25.7 °F /  -3.5 °C 30.30 in /  1026 hPa NNE 5.8 mph /  9.3 km/h 11.5 mph /  18.5 km/h 54 % 0.00 in /  0 mm
19:35 41.1 °F /  5.1 °C 25.3 °F /  -3.7 °C 30.30 in /  1026 hPa North 5.4 mph /  8.7 km/h 9.2 mph /  14.8 km/h 53 % 0.00 in /  0 mm
19:45 40.9 °F /  4.9 °C 26.0 °F /  -3.3 °C 30.30 in /  1026 hPa NE 5.3 mph /  8.5 km/h 6.9 mph /  11.1 km/h 55 % 0.00 in /  0 mm
19:50 40.9 °F /  4.9 °C 26.0 °F /  -3.3 °C 30.30 in /  1026 hPa North 5.2 mph /  8.4 km/h 9.0 mph /  14.5 km/h 55 % 0.00 in /  0 mm
19:56 40.8 °F /  4.9 °C 26.3 °F /  -3.2 °C 30.29 in /  1025.6 hPa North 4.1 mph /  6.6 km/h 6.9 mph /  11.1 km/h 56 % 0.00 in /  0 mm
20:01 40.7 °F /  4.8 °C 26.2 °F /  -3.2 °C 30.30 in /  1026 hPa North 5.3 mph /  8.5 km/h 8.1 mph /  13 km/h 56 % 0.00 in /  0 mm
20:06 40.6 °F /  4.8 °C 26.1 °F /  -3.3 °C 30.30 in /  1026 hPa NNE 5.4 mph /  8.7 km/h 8.1 mph /  13 km/h 56 % 0.00 in /  0 mm
20:11 40.4 °F /  4.7 °C 26.8 °F /  -2.9 °C 30.30 in /  1026 hPa NNE 3.4 mph /  5.5 km/h 6.9 mph /  11.1 km/h 58 % 0.00 in /  0 mm
20:16 40.3 °F /  4.6 °C 26.7 °F /  -2.9 °C 30.30 in /  1026 hPa NNE 3.3 mph /  5.3 km/h 5.0 mph /  8 km/h 58 % 0.00 in /  0 mm
20:21 40.2 °F /  4.6 °C 26.6 °F /  -3 °C 30.30 in /  1026 hPa North 5.1 mph /  8.2 km/h 8.1 mph /  13 km/h 58 % 0.00 in /  0 mm
20:26 40.1 °F /  4.5 °C 26.9 °F /  -2.8 °C 30.30 in /  1026 hPa North 3.3 mph /  5.3 km/h 5.0 mph /  8 km/h 59 % 0.00 in /  0 mm
20:31 40.0 °F /  4.4 °C 26.8 °F /  -2.9 °C 30.30 in /  1026 hPa NNE 3.4 mph /  5.5 km/h 9.2 mph /  14.8 km/h 59 % 0.00 in /  0 mm
20:36 39.8 °F /  4.3 °C 27.0 °F /  -2.8 °C 30.30 in /  1026 hPa North 3.2 mph /  5.1 km/h 6.0 mph /  9.7 km/h 60 % 0.00 in /  0 mm
20:41 39.8 °F /  4.3 °C 25.8 °F /  -3.4 °C 30.30 in /  1026 hPa North 4.9 mph /  7.9 km/h 8.1 mph /  13 km/h 57 % 0.00 in /  0 mm
20:46 39.7 °F /  4.3 °C 25.3 °F /  -3.7 °C 30.30 in /  1026 hPa NNE 5.9 mph /  9.5 km/h 9.2 mph /  14.8 km/h 56 % 0.00 in /  0 mm
20:51 39.7 °F /  4.3 °C 25.3 °F /  -3.7 °C 30.31 in /  1026.3 hPa NE 4.6 mph /  7.4 km/h 9.2 mph /  14.8 km/h 56 % 0.00 in /  0 mm
20:56 39.6 °F /  4.2 °C 25.6 °F /  -3.6 °C 30.31 in /  1026.3 hPa NE 6.2 mph /  10 km/h 8.1 mph /  13 km/h 57 % 0.00 in /  0 mm
21:01 39.6 °F /  4.2 °C 25.2 °F /  -3.8 °C 30.31 in /  1026.3 hPa NE 6.7 mph /  10.8 km/h 11.5 mph /  18.5 km/h 56 % 0.00 in /  0 mm
21:06 39.5 °F /  4.2 °C 25.1 °F /  -3.8 °C 30.31 in /  1026.3 hPa NE 6.8 mph /  10.9 km/h 8.1 mph /  13 km/h 56 % 0.00 in /  0 mm
21:11 39.5 °F /  4.2 °C 25.5 °F /  -3.6 °C 30.32 in /  1026.6 hPa NE 6.2 mph /  10 km/h 9.2 mph /  14.8 km/h 57 % 0.00 in /  0 mm
21:16 39.3 °F /  4.1 °C 25.3 °F /  -3.7 °C 30.32 in /  1026.6 hPa NE 5.0 mph /  8 km/h 9.0 mph /  14.5 km/h 57 % 0.00 in /  0 mm
21:21 39.3 °F /  4.1 °C 25.7 °F /  -3.5 °C 30.32 in /  1026.6 hPa NNE 6.1 mph /  9.8 km/h 8.1 mph /  13 km/h 58 % 0.00 in /  0 mm
21:26 39.1 °F /  3.9 °C 25.6 °F /  -3.6 °C 30.32 in /  1026.6 hPa NNE 6.0 mph /  9.7 km/h 8.1 mph /  13 km/h 58 % 0.00 in /  0 mm
21:31 39.0 °F /  3.9 °C 25.9 °F /  -3.4 °C 30.31 in /  1026.3 hPa NNE 4.3 mph /  6.9 km/h 6.9 mph /  11.1 km/h 59 % 0.00 in /  0 mm
21:36 38.9 °F /  3.8 °C 26.2 °F /  -3.2 °C 30.31 in /  1026.3 hPa NNE 4.4 mph /  7.1 km/h 5.8 mph /  9.3 km/h 60 % 0.00 in /  0 mm
21:41 38.8 °F /  3.8 °C 26.1 °F /  -3.3 °C 30.31 in /  1026.3 hPa North 4.7 mph /  7.6 km/h 6.9 mph /  11.1 km/h 60 % 0.00 in /  0 mm
21:46 38.6 °F /  3.7 °C 26.7 °F /  -2.9 °C 30.31 in /  1026.3 hPa NNE 4.5 mph /  7.2 km/h 8.1 mph /  13 km/h 62 % 0.00 in /  0 mm
21:51 38.4 °F /  3.6 °C 26.1 °F /  -3.3 °C 30.31 in /  1026.3 hPa NE 4.4 mph /  7.1 km/h 8.1 mph /  13 km/h 61 % 0.00 in /  0 mm
21:57 38.3 °F /  3.5 °C 26.0 °F /  -3.3 °C 30.31 in /  1026.3 hPa NNE 4.3 mph /  6.9 km/h 6.9 mph /  11.1 km/h 61 % 0.00 in /  0 mm
22:02 38.2 °F /  3.4 °C 25.9 °F /  -3.4 °C 30.31 in /  1026.3 hPa NNE 6.9 mph /  11.1 km/h 10.4 mph /  16.7 km/h 61 % 0.00 in /  0 mm
22:07 38.1 °F /  3.4 °C 25.4 °F /  -3.7 °C 30.31 in /  1026.3 hPa North 5.7 mph /  9.2 km/h 6.9 mph /  11.1 km/h 60 % 0.00 in /  0 mm
22:12 38.1 °F /  3.4 °C 25.4 °F /  -3.7 °C 30.31 in /  1026.3 hPa NNE 3.4 mph /  5.5 km/h 5.0 mph /  8 km/h 60 % 0.00 in /  0 mm
22:17 38.0 °F /  3.3 °C 25.7 °F /  -3.5 °C 30.31 in /  1026.3 hPa NE 3.7 mph /  6 km/h 5.8 mph /  9.3 km/h 61 % 0.00 in /  0 mm
22:22 37.9 °F /  3.3 °C 25.6 °F /  -3.6 °C 30.32 in /  1026.6 hPa NNE 4.2 mph /  6.8 km/h 8.1 mph /  13 km/h 61 % 0.00 in /  0 mm
22:27 37.8 °F /  3.2 °C 25.5 °F /  -3.6 °C 30.32 in /  1026.6 hPa NNE 4.6 mph /  7.4 km/h 6.9 mph /  11.1 km/h 61 % 0.00 in /  0 mm
22:32 37.8 °F /  3.2 °C 25.5 °F /  -3.6 °C 30.32 in /  1026.6 hPa NNE 5.0 mph /  8 km/h 9.0 mph /  14.5 km/h 61 % 0.00 in /  0 mm
22:37 37.7 °F /  3.2 °C 25.5 °F /  -3.6 °C 30.32 in /  1026.6 hPa NNE 3.5 mph /  5.6 km/h 4.0 mph /  6.4 km/h 61 % 0.00 in /  0 mm
22:42 37.6 °F /  3.1 °C 25.0 °F /  -3.9 °C 30.32 in /  1026.6 hPa NE 3.9 mph /  6.3 km/h 5.8 mph /  9.3 km/h 60 % 0.00 in /  0 mm
22:47 37.5 °F /  3.1 °C 24.9 °F /  -3.9 °C 30.32 in /  1026.6 hPa NNE 3.8 mph /  6.1 km/h 5.8 mph /  9.3 km/h 60 % 0.00 in /  0 mm
22:52 37.5 °F /  3.1 °C 25.3 °F /  -3.7 °C 30.32 in /  1026.6 hPa NE 4.1 mph /  6.6 km/h 6.0 mph /  9.7 km/h 61 % 0.00 in /  0 mm
22:57 37.4 °F /  3 °C 25.2 °F /  -3.8 °C 30.32 in /  1026.6 hPa NNE 4.3 mph /  6.9 km/h 5.8 mph /  9.3 km/h 61 % 0.00 in /  0 mm
23:02 37.2 °F /  2.9 °C 24.6 °F /  -4.1 °C 30.33 in /  1027 hPa NNE 2.6 mph /  4.2 km/h 6.9 mph /  11.1 km/h 60 % 0.00 in /  0 mm
23:07 37.1 °F /  2.8 °C 24.9 °F /  -3.9 °C 30.32 in /  1026.6 hPa NE 1.9 mph /  3.1 km/h 3.5 mph /  5.6 km/h 61 % 0.00 in /  0 mm
23:12 37.1 °F /  2.8 °C 25.3 °F /  -3.7 °C 30.32 in /  1026.6 hPa NNE 1.5 mph /  2.4 km/h 3.5 mph /  5.6 km/h 62 % 0.00 in /  0 mm
23:17 37.0 °F /  2.8 °C 25.6 °F /  -3.6 °C 30.33 in /  1027 hPa NNE 1.3 mph /  2.1 km/h 4.6 mph /  7.4 km/h 63 % 0.00 in /  0 mm
23:22 36.8 °F /  2.7 °C 25.4 °F /  -3.7 °C 30.33 in /  1027 hPa ENE 1.3 mph /  2.1 km/h 4.6 mph /  7.4 km/h 63 % 0.00 in /  0 mm
23:27 36.7 °F /  2.6 °C 25.7 °F /  -3.5 °C 30.33 in /  1027 hPa NE 1.6 mph /  2.6 km/h 3.5 mph /  5.6 km/h 64 % 0.00 in /  0 mm
23:32 36.6 °F /  2.6 °C 25.9 °F /  -3.4 °C 30.33 in /  1027 hPa NE 1.8 mph /  2.9 km/h 3.5 mph /  5.6 km/h 65 % 0.00 in /  0 mm
23:37 36.5 °F /  2.5 °C 25.8 °F /  -3.4 °C 30.33 in /  1027 hPa Calm   2.0 mph /  3.2 km/h 65 % 0.00 in /  0 mm
23:42 36.4 °F /  2.4 °C 25.4 °F /  -3.7 °C 30.33 in /  1027 hPa Calm   1.0 mph /  1.6 km/h 64 % 0.00 in /  0 mm
23:47 36.3 °F /  2.4 °C 25.3 °F /  -3.7 °C 30.33 in /  1027 hPa NE 0.3 mph /  0.5 km/h 1.2 mph /  1.9 km/h 64 % 0.00 in /  0 mm
23:52 36.1 °F /  2.3 °C 25.1 °F /  -3.8 °C 30.33 in /  1027 hPa Calm     64 % 0.00 in /  0 mm
23:53 36.1 °F /  2.3 °C 25.1 °F /  -3.8 °C 30.33 in /  1027 hPa Calm     64 % 0.00 in /  0 mm
23:58 35.9 °F /  2.2 °C 25.3 °F /  -3.7 °C 30.33 in /  1027 hPa Calm     65 % 0.00 in /  0 mm
Crab Meadow Weather
Compliments of Weather Underground - 3 mb

Script developed by  Jim McMurry - jmcmurry@mwt.net Adapted for the template by  Wim van der Kuil - Leuven-Template.eu

Hurricanes: Hurricanes are classified into five categories, based on their wind speeds and potential to cause damage. * Category One -- Winds 74-95 miles per hour * Category Two -- Winds 96-110 miles per hour * Category Three -- Winds 111-130 miles per hour * Category Four -- Winds 131-155 miles per hour * Category Five -- Winds greater than 155 miles per hour.